Location: Kinloch
(38.7406°N, 90.3254°W)
Time: 15:57:33
(UTC+00:00)

SL-16 R/B - Pass Details

Date: 13 February 2026
Orbit: 841 x 845 km, 71.0° (Epoch: 9 March)

Event Time Altitude Azimuth Distance (km) Brightness Sun altitude
Rises 12:23:03 0° 204° (SSW) 3,382 5.2 -6.8°
Reaches altitude 10° 12:25:29 10° 206° (SSW) 2,451 4.5 -6.3°
Maximum altitude 12:31:07 79° 292° (WNW) 862 2.2 -5.3°
Drops below altitude 10° 12:36:48 10° 20° (NNE) 2,469 4.7 -4.2°
Sets 12:39:15 0° 22° (NNE) 3,408 5.5 -3.7°
